Home   Weather   Siegen   Past weeks
Flag for Germany

Past Weather in Siegen, North Rhine-Westphalia, Germany — Yesterday and Last 2 Weeks

Now
54 °F

Low clouds.


Feels Like: 50 °F
Forecast: 58 / 52 °F
Wind: 12 mph from South

Location: Siegerland Airport

Current Time: Oct 19, 2019 at 7:22:41 pm

Latest Report: Oct 19, 2019 at 6:50 pm


Visibility: N/A

Pressure: 29.71 "Hg

Humidity: 94%

Dew Point: 52 °F

Location of SiegenLocation

Past Weather in Siegen — Graph

°F

Siegen Temperature Yesterday

Maximum temperature yesterday: 54 °F (at 11:20 am)
Minimum temperature yesterday: 46 °F (at 7:20 pm)
Average temperature yesterday: 51 °F

High & Low Weather Summary for the Past Weeks

 TemperatureHumidityPressure
High68 °F (Oct 13, 3:50 pm)100% (Oct 4, 6:20 pm)30.07 "Hg (Oct 4, 6:20 pm)
Low39 °F (Oct 6, 7:20 am)53% (Oct 14, 4:20 pm)29.65 "Hg (Oct 4, 5:20 pm)
Average51 °F89%29.88 "Hg
* Reported Oct 4 5:20 pm — Oct 19 5:50 pm, Siegen. Weather by CustomWeather, © 2019

Note: Actual official high and low records may vary slightly from our data, if they occured in-between our weather recording intervals... More about our weather records

Advertising

Siegen Weather History for the Previous 24 Hours

Scroll right to see more
 ConditionsComfort  
Time TempWeatherWind HumidityBarometerVisibility
5:50 pm
Sat, Oct 19
54 °FMostly cloudy.13 mph94%29.71 "HgN/A
5:20 pm54 °FBroken clouds.13 mph94%29.71 "HgN/A
4:50 pm54 °FBroken clouds.10 mph94%29.71 "HgN/A
4:20 pm54 °FLow clouds.13 mph88%29.71 "HgN/A
3:50 pm54 °FPartly sunny.15 mph88%29.71 "HgN/A
3:20 pm54 °FMore clouds than sun.12 mph88%29.71 "HgN/A
2:50 pm52 °FBroken clouds.15 mph94%29.71 "HgN/A
2:20 pm52 °FBroken clouds.15 mph94%29.71 "HgN/A
1:50 pm52 °FBroken clouds.14 mph94%29.74 "HgN/A
1:20 pm52 °FPartly sunny.14 mph94%29.74 "HgN/A
12:50 pm50 °FScattered showers. Broken clouds.16 mph100%29.74 "HgN/A
12:20 pm50 °FLight rain. Broken clouds.14 mph100%29.74 "Hg4 mi
11:50 am50 °FLight rain. Broken clouds.14 mph94%29.74 "Hg2 mi
11:20 am50 °FLight rain. Broken clouds.14 mph94%29.74 "HgN/A
10:50 am50 °FBroken clouds.14 mph94%29.74 "HgN/A
10:20 am48 °FBroken clouds.12 mph100%29.74 "HgN/A
9:50 am48 °FBroken clouds.14 mph100%29.74 "HgN/A
9:20 am48 °FBroken clouds.15 mph94%29.74 "HgN/A
8:50 am46 °FBroken clouds.13 mph100%29.74 "HgN/A
8:20 am46 °FBroken clouds.12 mph100%29.74 "HgN/A
7:50 am48 °FScattered showers. Partly cloudy.14 mph94%29.74 "HgN/A
7:50 pm
Fri, Oct 18
46 °FPassing clouds.9 mph87%29.83 "HgN/A
7:20 pm46 °FPassing clouds.8 mph87%29.83 "HgN/A
Weather by CustomWeather, © 2019

See weather overview